Location: Paimpol
(48.7798°N, 3.0488°W)
Time: 09:52:40
(UTC+02:00)

ISS - Pass Details

Date: 28 June 2021
Orbit: 419 x 421 km, 51.6° (Epoch: 31 July)

Event Time Altitude Azimuth Distance (km) Brightness Sun altitude
Exits shadow 04:57:47 - 173° (S) 1,801 -1.0 -9.4°
Reaches altitude 10° 04:59:22 10° 151° (SSE) 1,496 -1.2 -9.2°
Maximum altitude 05:00:20 11° 134° (SE) 1,440 -1.1 -9.1°
Drops below altitude 10° 05:01:18 10° 117° (ESE) 1,499 -0.8 -9.0°
Sets 05:04:45 0° 80° (E) 2,368 0.9 -8.7°
